Torna al catalogo

STARLINK-32860

AttivoComunicazioniVLEO
NORAD 62856·PAYLOAD·🇺🇸 United States

Lanciato Feb 1, 2025 da Vandenberg Space Force Base

Loading…

Prossimi Passaggi (prossime 24 ore)

TLE

AggiornatoSource: CelesTrak SupGP

Epoca: Sep 15, 2026, 03:26 UTC

1 62856C 25022C   26258.14354167  .00053574  00000+0  15826-2 0  2587
2 62856  53.1585 326.5073 0001258  96.5168 141.6962 15.34368261    12

Traccia STARLINK-32860 in tempo reale con AllMySat

Download on the App Store